Home > Weather > El Monte > Past weeks

Flag for USA Past Weather in El Monte, California, USA — Yesterday and Last 2 Weeks

Now
78 °F

Sunny.


Feels Like: 80 °F
Forecast: 65 / 86 °F
Wind: 12 mph from Southwest

Location: Fullerton Municipal Airport

Current Time: Jul 1, 2016 at 1:52:33 PM

Latest Report: Jul 1, 2016 at 12:53 PM


Visibility: 10 mi

Pressure: 29.91 "Hg

Humidity: 58%

Dew Point: 62 °F

Location of El MonteLocation

Past Weather in El Monte — Graph

°F

El Monte Temperature Yesterday

Maximum temperature yesterday: 81 °F (at 2:53 PM)
Minimum temperature yesterday: 69 °F (at 1:53 AM)
Average temperature yesterday: 74 °F

High & Low Weather Summary for the Past Weeks

 TemperatureHumidityPressure
High108 °F (Jun 20, 1:53 PM)94% (Jun 22, 3:53 AM)30.03 "Hg (Jun 22, 3:53 AM)
Low60 °F (Jun 17, 5:53 AM)6% (Jun 20, 5:53 PM)29.79 "Hg (Jun 20, 5:53 PM)
Average76 °F58%29.90 "Hg
* Reported Jun 16 11:53 AM — Jul 1 11:53 AM, El Monte, Weather by CustomWeather, © 2016

Note: Actual official high and low records may vary slightly from our data, if they occured in-between our weather recording intervals... More about our weather records

Advertising

El Monte Weather History for the Previous 24 Hours

Scroll right to see more
 ConditionsComfort  
Time TempWeatherWind HumidityBarometerVisibility
11:53 AM
Fri, Jul 1
77 °FSunny.8 mph60%29.91 "Hg10 mi
10:53 AM78 °FPassing clouds.5 mph58%29.91 "Hg10 mi
10:01 AM76 °FPartly sunny.6 mph60%29.91 "Hg10 mi
8:53 AM72 °FPartly sunny.6 mph68%29.90 "Hg10 mi
7:53 AM71 °FOvercast.5 mph71%29.90 "Hg9 mi
6:53 AM70 °FOvercast.3 mph73%29.88 "Hg9 mi
5:53 AM70 °FOvercast.No wind73%29.87 "Hg10 mi
4:53 AM69 °FOvercast.5 mph76%29.86 "Hg10 mi
3:53 AM69 °FOvercast.3 mph79%29.86 "Hg9 mi
2:53 AM69 °FOvercast.3 mph76%29.87 "Hg10 mi
1:53 AM67 °FOvercast.3 mph81%29.87 "Hg10 mi
12:53 AM68 °FOvercast.7 mph82%29.88 "Hg10 mi
11:53 PM
Thu, Jun 30
69 °FOvercast.No wind79%29.87 "Hg9 mi
10:53 PM70 °FOvercast.6 mph76%29.87 "Hg10 mi
9:53 PM70 °FOvercast.3 mph79%29.86 "Hg9 mi
8:53 PM70 °FPartly sunny.6 mph79%29.83 "Hg9 mi
7:53 PM72 °FSunny.7 mph73%29.81 "Hg8 mi
6:53 PM74 °FSunny.8 mph67%29.80 "Hg10 mi
5:53 PM78 °FSunny.6 mph58%29.79 "Hg10 mi
4:53 PM79 °FSunny.8 mph54%29.80 "Hg10 mi
3:53 PM80 °FSunny.8 mph52%29.82 "Hg10 mi
2:53 PM81 °FSunny.7 mph51%29.84 "Hg10 mi
1:53 PM80 °FSunny.9 mph52%29.85 "Hg10 mi
Weather by CustomWeather, © 2016

See weather overviewHow to use our weather pages